Dewpoint
40 42 45 49 59 61 60 60 60 59 59 59 59 59 58 57 57 56 56 56 55 55 56 56 55 55 55 55 55 54 53 52 49 50 51 53 53 54 53 54 55 55 55
39 41 43 45 49 60 60 59 59 59 59 59 59 59 58 57 57 56 55 55 55 55 55 56 55 56 55 55 55 54 53 53 51 49 51 52 52 54 54 54 55 54 54
37 38 40 41 43 47 57 59 59 59 58 59 59 58 58 58 57 56 56 56 55 56 56 56 56 55 55 55 55 54 54 54 53 52 51 52 53 54 54 54 54 55 55
35 36 37 39 40 42 47 57 59 58 58 58 58 58 58 57 57 56 56 56 56 56 56 56 56 56 55 55 55 55 54 54 53 52 52 52 52 53 54 52 52 53 52
34 34 35 36 38 39 40 43 53 58 58 57 58 58 57 57 57 57 57 56 56 56 56 56 56 57 56 56 55 55 55 54 54 53 52 51 52 51 52 52 52 52 51
31 32 34 35 35 36 36 37 37 40 50 57 56 57 56 49 45 55 57 56 56 55 55 55 56 55 55 55 55 55 55 54 53 52 52 51 51 51 51 51 51 50 47
30 30 31 33 34 34 35 35 35 34 35 37 40 43 40 38 39 44 53 56 55 55 55 54 54 54 54 53 44 44 43 43 48 52 52 51 51 51 51 50 50 50 48
27 28 30 30 31 33 33 33 34 34 33 32 33 34 35 35 38 42 45 52 48 45 44 47 51 49 46 49 46 43 38 36 37 40 43 40 39 40 44 47 48 41 35
26 26 27 29 29 30 30 32 32 33 32 32 32 32 32 33 35 37 41 39 36 34 34 35 38 42 39 42 44 39 33 30 32 32 32 31 32 33 36 41 42 42 37
26 26 26 27 28 28 29 29 31 31 32 32 32 31 31 31 34 34 33 32 31 31 31 31 33 35 37 40 40 37 34 28 28 28 28 28 28 29 29 32 36 40 33
24 24 24 25 26 27 28 28 28 29 30 31 30 29 29 30 31 33 33 32 31 29 29 29 30 32 33 34 34 33 29 28 28 27 26 25 25 25 25 26 29 33 32
23 22 22 23 24 25 26 26 27 27 26 27 27 27 28 29 30 30 31 31 31 28 28 29 30 31 30 30 30 30 30 29 28 26 23 22 22 22 23 23 23 23 24
27 22 21 22 23 24 24 25 25 25 25 26 26 26 27 28 29 29 29 28 27 26 27 27 27 28 28 28 28 28 28 28 27 25 22 21 21 22 23 23 23 22 21
24 25 22 21 21 22 23 24 25 25 24 24 25 25 26 27 27 28 27 27 27 25 25 24 25 25 24 24 24 25 25 25 24 22 21 22 23 21 18 18 14 13 12
23 23 24 21 20 20 21 24 24 26 27 24 25 26 25 25 27 28 27 25 24 24 24 23 21 21 21 21 21 21 22 22 21 22 20 19 19 17 14 15 13 10 9
21 22 23 23 22 20 19 19 22 24 24 26 27 26 26 26 25 25 25 24 24 23 20 18 18 18 18 18 18 18 19 19 20 19 18 17 16 14 14 15 14 10 6
21 22 22 22 22 21 19 18 17 17 19 21 23 23 22 21 21 22 21 20 20 18 17 17 16 16 17 17 17 17 16 17 19 18 17 16 15 15 14 14 13 11 9
19 20 20 20 19 18 17 16 15 15 15 16 18 19 20 19 19 19 18 16 15 15 15 15 15 15 15 15 14 14 13 13 14 14 13 13 14 13 12 12 13 13 11
19 18 18 18 19 16 15 14 14 14 13 14 14 14 15 15 15 15 14 13 12 12 13 12 13 13 12 11 11 10 10 10 10 10 10 10 11 10 9 10 9 8 9
17 17 16 17 17 15 12 13 13 12 12 12 12 12 12 10 9 9 9 10 9 9 10 10 10 9 9 8 7 8 8 8 8 9 8 7 8 8 7 6 6 5 6
14 14 16 12 14 16 14 12 12 11 11 11 11 12 10 9 8 7 7 7 7 7 7 7 6 5 6 5 4 3 3 3 4 5 7 7 6 7 7 7 6 6 5
13 14 14 14 11 13 14 14 13 12 11 10 10 9 8 7 5 4 3 3 4 5 5 4 3 2 1 1 1 -0 -1 -0 0 1 2 4 6 5 5 5 3 3 5
10 11 12 12 12 11 11 12 11 9 7 7 7 6 5 5 4 3 1 0 0 1 2 1 -1 -2 -3 -3 -2 -3 -3 -3 -3 -3 1 2 4 3 2 4 4 4 4
7 8 9 10 10 10 9 9 10 10 8 6 5 5 4 3 3 3 2 1 0 -1 -1 -1 -2 -3 -3 -4 -4 -3 -3 -5 -4 -3 -3 1 3 3 2 2 3 2 3
6 6 6 7 7 7 7 7 6 6 7 7 7 5 4 3 3 2 2 1 -0 0 1 -1 -2 -3 -3 -3 -5 -5 -5 -4 -4 -4 -3 -1 -1 -1 -0 -0 0 1 1
2 5 6 5 6 6 6 6 6 6 6 6 5 5 4 3 1 1 2 3 1 0 1 -0 -1 -2 -2 -2 -3 -5 -6 -5 -4 -5 -4 -3 -0 -1 -2 -2 -1 0 -1
Wind_Speed
24 24 23 25 15 19 20 21 22 18 21 22 25 23 22 21 19 19 17 17 18 16 14 16 16 14 14 15 13 12 13 12 16 9 15 15 14 16 14 16 15 15 15
22 22 22 22 23 10 17 19 16 20 20 22 21 21 21 21 20 19 19 17 20 19 18 16 18 15 17 15 15 16 15 14 14 16 11 12 12 15 15 17 13 12 15
23 24 23 25 24 22 12 12 16 19 20 18 19 20 20 21 20 20 20 20 20 20 19 19 19 18 19 16 17 17 17 15 16 14 13 7 8 7 10 8 11 10 9
24 24 26 27 25 23 22 8 13 17 19 20 21 20 20 18 20 20 20 19 19 19 19 20 19 19 20 20 19 21 19 18 19 18 12 9 8 7 9 12 13 10 6
26 28 28 25 25 22 25 24 17 11 17 19 19 19 20 20 19 19 18 18 18 18 17 17 17 16 20 19 15 15 15 16 14 16 14 7 11 9 17 12 17 12 7
29 28 27 28 28 26 25 25 26 24 16 13 17 17 16 11 4 18 19 18 17 17 17 16 14 19 19 19 19 16 17 16 15 11 10 12 14 13 10 14 15 8 6
26 28 30 29 28 27 24 25 26 26 23 21 20 14 13 12 9 2 13 15 16 16 15 14 14 13 15 12 11 13 11 8 4 10 14 12 12 13 10 12 13 10 6
26 26 27 28 26 26 27 25 24 22 23 22 23 19 15 18 15 1 2 9 12 9 7 5 11 11 7 12 15 11 8 9 5 3 3 4 2 1 3 6 10 9 8
26 25 25 24 25 26 28 26 21 21 25 23 18 28 19 22 22 17 11 9 12 12 12 11 2 8 4 7 17 16 12 13 17 21 20 18 17 13 3 6 10 13 6
24 22 22 23 22 23 23 25 22 20 20 16 20 20 25 21 22 21 19 15 17 13 14 16 17 3 3 11 16 18 17 9 10 10 10 14 15 16 17 9 1 13 7
20 21 23 24 22 21 19 20 22 23 22 18 20 24 23 26 27 26 19 18 17 18 17 18 17 18 14 13 14 15 13 17 16 15 14 15 15 16 16 14 13 5 5
21 22 22 22 20 20 21 20 20 19 18 20 20 20 22 23 30 30 29 25 16 19 18 15 20 25 24 22 19 21 22 21 16 16 17 16 16 15 14 17 18 19 17
16 20 20 20 21 21 22 23 21 20 18 18 18 20 20 20 18 22 28 27 23 19 17 22 22 20 22 25 24 18 17 14 15 18 17 17 13 10 7 12 13 14 20
17 17 16 17 18 20 20 20 21 19 17 17 17 17 16 16 15 15 15 14 17 17 16 18 18 18 21 19 18 19 15 15 15 15 14 14 9 8 12 10 12 12 15
16 15 15 14 15 14 16 19 17 20 20 15 16 17 15 17 18 19 16 14 14 14 13 15 17 17 18 18 18 18 17 14 16 11 12 14 13 12 12 11 12 13 13
16 16 15 13 12 13 12 12 17 22 26 27 23 17 14 19 19 19 19 20 18 16 14 15 17 16 16 15 15 16 16 15 13 12 13 11 12 13 14 13 13 13 14
15 15 13 14 12 12 13 13 14 13 16 24 25 25 23 19 18 17 18 22 20 17 16 14 15 14 14 14 14 13 13 12 11 13 12 11 12 12 12 12 12 13 12
17 17 14 12 12 12 12 12 12 13 13 14 15 20 21 21 21 20 15 17 16 18 15 15 14 13 13 13 13 12 11 12 12 12 12 11 11 11 11 12 11 10 10
14 13 14 13 11 11 11 11 11 12 12 10 11 12 16 16 20 23 21 16 14 14 13 14 13 13 12 12 12 12 13 13 12 13 12 12 11 11 12 11 11 11 9
14 14 13 13 12 11 11 11 12 12 12 12 13 13 11 13 17 15 15 14 14 13 12 13 12 12 11 11 11 11 13 14 13 12 12 12 12 11 12 12 11 11 10
12 12 12 12 12 8 7 8 9 11 11 11 11 11 13 13 12 13 12 13 12 11 11 10 11 11 11 11 11 12 13 12 10 10 9 8 9 12 10 11 11 11 10
11 12 12 10 10 9 7 5 6 7 8 9 8 10 12 11 11 11 12 11 11 10 9 10 11 11 11 10 10 11 11 12 11 10 10 10 9 9 9 10 11 10 9
12 12 11 10 9 8 7 7 7 7 7 7 7 9 10 11 11 10 10 10 10 11 9 10 11 11 11 12 11 10 10 8 6 5 8 8 9 8 8 9 8 8 7
11 12 10 10 10 8 7 7 6 6 5 5 6 7 7 7 8 7 6 6 9 9 9 10 10 10 9 10 9 8 7 6 5 6 5 5 8 7 8 8 7 7 7
10 10 10 9 9 9 8 7 6 5 5 4 3 4 5 5 5 4 3 4 6 7 7 7 8 8 8 8 8 8 8 8 8 7 6 7 8 8 8 6 6 6 5
7 7 7 7 8 7 6 6 5 5 5 3 2 1 3 4 2 2 1 3 4 5 5 5 5 5 6 5 6 7 9 9 9 9 7 6 7 7 7 5 4 5 5
Wind_Direction
349 340 338 332 259 221 207 205 205 192 194 195 195 195 191 186 180 182 184 181 194 206 201 198 203 191 194 191 182 180 187 181 207 207 217 215 205 200 200 196 191 205 223
349 348 348 348 352 237 208 210 195 193 193 198 196 192 186 187 179 185 184 187 197 203 206 202 203 191 197 194 189 199 201 200 210 228 214 206 203 202 193 188 193 210 218
358 359 1 360 357 349 309 220 198 191 191 189 190 193 188 183 182 196 192 191 196 201 207 207 209 200 203 206 205 208 209 212 215 223 228 197 201 174 181 182 192 211 220
6 10 8 4 1 353 352 305 207 199 189 186 189 188 191 183 186 194 190 194 200 204 205 209 210 206 209 206 205 210 209 208 205 209 202 185 193 195 194 209 229 223 191
10 14 12 4 10 4 11 3 345 215 200 189 183 181 182 182 188 185 188 195 199 203 205 210 212 212 213 206 203 203 204 209 214 217 208 169 189 185 212 208 222 218 170
17 11 9 12 15 16 19 19 15 7 354 193 177 178 164 130 108 186 187 194 197 200 203 206 206 210 212 212 211 209 206 210 207 201 203 208 198 200 190 198 204 184 189
17 14 12 10 13 18 21 29 32 20 14 29 37 63 67 39 13 195 192 187 193 197 196 202 201 199 203 197 136 122 96 87 163 205 209 206 204 205 190 202 195 196 180
17 16 13 10 10 14 24 21 34 33 29 25 34 36 38 24 11 320 217 160 142 123 124 144 182 175 166 171 164 142 102 61 34 52 123 127 107 153 180 201 190 142 94
18 13 10 13 13 12 14 14 16 30 38 30 18 49 30 30 26 45 89 87 95 83 66 45 57 166 176 169 169 156 121 94 75 82 82 75 67 58 106 148 170 171 180
15 11 15 15 15 16 19 11 8 13 22 33 36 45 42 26 36 56 68 77 72 56 51 44 30 346 195 156 167 160 157 138 115 88 62 54 51 50 50 51 143 184 146
19 17 19 18 15 10 18 25 23 19 14 9 38 38 45 38 35 46 59 76 84 70 50 49 37 50 77 95 121 134 135 120 101 87 73 62 51 45 39 41 40 62 137
23 23 20 19 17 15 22 18 26 30 30 20 26 37 35 39 40 45 51 58 61 81 78 65 64 62 61 68 79 100 112 114 107 96 84 67 64 55 54 55 52 57 51
20 25 20 18 21 21 24 24 26 24 24 29 30 31 30 31 31 32 46 53 49 58 67 68 60 61 66 63 58 60 74 78 95 98 98 92 82 75 63 71 60 66 63
21 22 23 24 23 27 31 30 31 24 24 29 34 33 36 35 31 33 34 37 47 51 46 49 57 55 57 59 56 54 54 62 82 92 105 105 99 94 78 65 76 68 73
20 18 19 26 27 27 26 29 34 34 37 34 29 36 37 41 41 49 51 47 48 42 56 53 54 53 52 51 52 54 54 56 71 79 86 95 97 95 73 64 62 64 76
18 15 14 16 27 30 29 26 32 41 41 40 46 48 39 49 50 49 53 54 54 53 55 52 49 48 55 57 57 53 47 46 39 58 67 72 82 89 86 73 73 74 74
18 14 13 16 21 29 28 28 24 16 36 37 37 40 41 39 42 49 54 59 56 59 61 57 57 50 49 50 50 54 57 46 52 58 61 62 67 67 85 89 91 90 81
14 16 18 18 29 35 37 39 42 39 32 23 24 32 34 39 40 40 47 53 46 44 50 51 48 46 48 51 53 50 47 51 57 57 63 67 70 75 76 79 80 89 87
13 10 13 20 24 30 33 36 40 44 43 34 22 17 17 33 44 43 46 54 54 46 43 47 45 49 50 55 57 59 59 52 54 63 62 66 67 81 81 76 80 77 79
8 11 20 25 25 26 30 42 45 48 45 38 32 22 17 41 41 36 36 42 49 49 47 52 45 45 49 51 54 54 59 52 50 54 60 67 74 86 95 91 83 81 75
10 15 18 25 24 24 42 52 51 57 55 51 40 30 44 57 48 46 46 45 48 49 50 52 50 48 44 48 53 61 67 62 51 51 59 67 79 91 89 89 84 78 73
17 19 23 16 17 30 40 58 57 60 58 60 51 47 53 61 60 59 57 53 48 49 51 67 64 54 50 54 60 68 68 63 51 44 55 62 77 84 90 91 85 78 74
26 27 23 19 15 27 50 53 65 69 70 70 70 68 66 72 73 73 71 63 61 61 62 74 77 69 59 60 59 64 68 56 38 32 55 67 76 84 89 97 96 85 78
35 33 29 22 24 27 36 43 47 57 63 82 89 88 88 87 83 83 79 72 72 65 69 80 82 82 74 65 58 53 56 48 35 36 42 82 88 87 89 90 86 82 83
37 35 32 27 33 37 41 43 53 52 54 58 94 108 106 100 98 86 89 92 87 81 81 90 91 82 73 69 55 48 44 41 38 30 50 77 81 79 76 78 75 69 64
24 29 31 36 35 32 26 28 48 59 56 50 54 112 140 132 115 70 44 144 112 96 105 113 101 84 75 63 40 38 34 33 31 29 42 66 78 72 72 74 69 81 87